Regional Weather Roundup
Issued by NWS

Home | Current Version | Previous Version | Text Only | Print | Product List | Glossary Off
Versions: 1 2 3 4 5 6 7 8 9 10 11 12 13 14 15 16 17 18 19 20 21 22 23 24 25 26 27 28 29 30 31 32 33 34 35 36 37 38 39 40 41 42 43 44 45 46 47 48 49 50

000
ASUS43 KIND 181409
RWRIN

WEATHER ROUNDUP FOR INDIANA
NATIONAL WEATHER SERVICE INDIANAPOLIS IN
1000 AM EDT SAT APR 18 2015

NOTE: "FAIR" INDICATES FEW OR NO CLOUDS BELOW 12,000 FEET WITH NO
SIGNIFICANT WEATHER AND/OR OBSTRUCTIONS TO VISIBILITY.

* - STATION DOES NOT REPORT WEATHER SUCH AS PRECIPITATION OR FOG.

+ - STATION NOT QUALITY CONTROLLED BY THE NATIONAL WEATHER SERVICE.
    USE DATA WITH CAUTION...ESPECIALLY DEWPOINT AND RELATIVE
    HUMIDITY OBSERVATIONS.

INZ001>003-010>013-019-020-181500-
NORTHWEST INDIANA

CITY           SKY/WX    TMP DP  RH WIND       PRES   REMARKS
GARY /AIRPORT/ PTSUNNY   66  43  42 N7        30.06R
KNOX *+        MOSUNNY   63  32  31 NW3       30.04S
MICHIGAN CITY+ SUNNY     63  43  48 N6        30.05S
MONTICELLO +   MOSUNNY   64  53  67 CALM      30.04S
RENSSELAER +   CLOUDY    64  52  63 CALM      30.05S
VALPARAISO     MOSUNNY   69  49  48 N6        30.04F

$$

LMZ046-743>745-181500-
SOUTHERN LAKE MICHIGAN

STATION/POSITION TIME  TEMP WIND        PRES
                       AIR  DIR/SP/G
                 (UTC) (F)  (DEG/KT/KT) (MB)
BURNS HARBOR     1400   56  320/  2/  5 1017.9S
MICHIGAN CITY    1400   55  320/ 12/ 19   N/A
4NW MICH CITY    1400   50                N/A

$$

INZ004-005-014>016-021>024-181500-
NORTH CENTRAL INDIANA

CITY           SKY/WX    TMP DP  RH WIND       PRES   REMARKS
ELKHART        SUNNY     66  45  45 CALM      30.04
GOSHEN         SUNNY     66  51  58 W6        30.04F
LOGANSPORT +   MOSUNNY   64  50  59 S5        30.06S
PERU/GRISSOM   MOSUNNY   67  52  57 SW3       30.05S
ROCHESTER +    MOSUNNY   68  50  52 CALM      30.05S
SOUTH BEND     SUNNY     67  48  50 NW6       30.04
WARSAW +       SUNNY     68  50  52 W6        30.05S

$$

INZ006>009-017-018-025>027-181500-
NORTHEAST INDIANA

CITY           SKY/WX    TMP DP  RH WIND       PRES   REMARKS
ANGOLA *+      MOSUNNY   70  48  46 NW9       30.04F
AUBURN +       SUNNY     68  46  45 NW3       30.05F
FORT WAYNE     MOSUNNY   69  48  47 W6        30.06S
HUNTINGTON +   SUNNY     65  44  45 CALM      30.05S

$$

INZ028-029-035-036-043>045-051>053-181500-
WEST CENTRAL INDIANA

CITY           SKY/WX    TMP DP  RH WIND       PRES   REMARKS
CRAWFORDSVL +  MOSUNNY   65  42  43 CALM      30.05F
GREENCASTLE +  PTSUNNY   63  45  51 CALM      30.05F
LAFAYETTE      MOSUNNY   63  50  62 CALM      30.05S
TERRE HAUTE    CLOUDY    64  52  64 CALM      30.04F

$$

INZ030>032-037>040-046>048-054>057-064-065-181500-
CENTRAL INDIANA

CITY           SKY/WX    TMP DP  RH WIND       PRES   REMARKS
ANDERSON       SUNNY     66  43  42 CALM      30.07S
CP ATTERBURY + PTSUNNY   63  50  63 E3        30.06F
FISHERS *+     SUNNY     66  50  55 CALM      30.06F
FRANKFORT +    MOSUNNY   67  51  57 CALM      30.07F
GREENWOOD *+   MOSUNNY   66  41  39 CALM      30.06F
INDIANAPOLIS   PTSUNNY   66  46  48 SE3       30.04F
-EAGLE CREEK   MOSUNNY   65  46  50 S3        30.05F
KOKOMO *+      MOSUNNY   68  50  52 SW5       30.06S
MARION +       MOSUNNY   64  46  52 CALM      30.08R
MT COMFORT *+  SUNNY     68  32  26 S3        30.06F
SHELBYVILLE    FAIR      68  46  45 S3        30.05F
ZIONSVILLE +   MOSUNNY   67  45  44 CALM      30.06F

$$

INZ033-034-041-042-049-050-058-059-181500-
EAST CENTRAL INDIANA

CITY           SKY/WX    TMP DP  RH WIND       PRES   REMARKS
MUNCIE         SUNNY     69  44  40 CALM      30.07R

$$

INZ060-061-067>069-081>083-085>088-181500-
SOUTHWEST INDIANA

CITY           SKY/WX    TMP DP  RH WIND       PRES   REMARKS
EVANSVILLE     CLOUDY    64  57  78 NE5       30.02F HAZE
HUNTINGBURG *+ CLOUDY    63  55  77 SE5       30.03F
WASHINGTON +   CLOUDY    61  54  75 CALM      30.03R

$$

INZ062-063-066-070>080-084-089>092-181500-
SOUTH CENTRAL AND SOUTHEAST INDIANA

CITY           SKY/WX    TMP DP  RH WIND       PRES   REMARKS
BEDFORD +      CLOUDY    63  52  67 CALM      30.04F
BLOOMINGTON    CLOUDY    65  50  58 SE5       30.04F
MADISON *+     PTSUNNY   68  43  40 E5        30.07S
NORTH VERNON + PTSUNNY   64  54  68 NE3       30.06F

$$




USA.gov is the U.S. government's official web portal to all federal, state and local government web resources and services.